RH
8 8 8 8 7 9 13 13 18 20 22 25 21 19 18 15 14 15 16 16 17 16 16 16 17 17 17 18 17 18 19 18 18 18 20 20 16 16 15 15 15 14 13 12 13 14 15 15 15 17 18 17 16 16 16 16 17 18 21 23 27 29 32 34 36 37 37 38 40 41 43 44 43 41 40 37 35 34 33 32 32 32 35 34 33 37 37 37 38 38 36 35 36 35 36 38 39
8 8 7 8 8 11 13 12 17 20 22 24 20 18 17 14 14 16 16 16 16 16 16 16 17 17 17 17 17 18 19 18 17 17 18 17 16 17 16 16 16 15 15 13 12 13 15 15 15 16 17 18 17 17 16 15 15 16 17 18 20 22 25 26 28 29 29 29 31 33 34 36 35 33 32 31 31 29 28 28 29 30 32 33 35 37 38 38 37 34 32 33 34 33 34 36 37
8 7 9 11 11 13 13 15 20 21 21 21 18 17 15 14 15 16 15 15 15 15 16 16 17 17 16 16 16 17 18 18 17 16 18 19 19 18 16 16 17 16 16 15 14 13 13 15 15 15 16 17 18 17 17 16 16 16 16 16 17 18 19 20 20 21 21 22 23 25 27 29 30 30 30 31 31 30 28 27 27 28 30 32 34 36 37 38 35 31 29 29 30 30 32 33 35
8 7 10 13 12 14 16 19 21 20 21 20 18 16 14 15 15 15 15 14 14 15 16 16 16 16 15 15 15 15 17 17 15 16 17 19 18 17 16 17 18 17 16 17 16 14 13 13 14 15 16 16 17 17 17 17 17 17 17 17 17 17 18 18 18 18 18 19 20 21 24 27 28 29 29 30 31 30 28 26 25 26 28 30 33 35 35 34 32 28 27 27 25 26 28 30 31
9 8 10 12 13 15 15 17 18 18 19 18 19 15 13 14 14 14 14 14 14 15 15 15 16 15 14 14 13 13 14 14 13 13 15 16 16 16 16 17 18 17 17 17 17 16 14 14 13 14 15 15 16 16 16 17 17 18 19 18 18 18 18 18 18 18 18 19 19 20 23 26 27 28 29 30 29 26 25 24 25 25 27 30 31 33 31 29 28 26 27 25 22 21 22 24 26
12 11 10 12 13 13 14 17 17 18 17 15 16 14 13 13 13 13 13 14 14 14 15 15 15 13 13 12 12 12 11 11 11 12 12 13 14 14 15 16 18 18 17 18 18 17 16 15 15 14 14 14 14 15 16 16 17 17 19 19 20 20 19 19 18 18 19 20 20 22 24 25 26 28 29 30 26 23 22 22 23 23 25 27 28 28 26 25 23 22 22 20 18 17 17 17 17
16 15 12 12 13 12 14 18 17 16 15 14 13 12 12 12 12 13 13 14 14 14 14 14 13 13 13 12 12 12 11 10 10 10 10 11 12 13 13 14 16 17 17 18 18 18 18 17 16 16 15 14 13 13 14 15 15 15 17 19 20 20 20 19 19 20 20 21 21 23 24 25 27 28 29 28 24 23 23 22 23 23 23 23 24 25 23 22 19 17 16 15 14 14 14 14 14
15 15 12 12 16 15 16 17 15 15 14 12 12 11 10 11 11 12 13 13 13 13 12 13 12 13 14 12 12 13 12 11 10 10 10 10 11 11 12 12 14 16 16 17 17 18 18 17 17 17 16 16 14 12 12 12 13 13 14 17 19 20 20 20 21 22 22 22 21 21 24 26 27 28 27 25 23 23 23 21 22 24 24 24 22 21 22 19 16 14 13 13 12 12 12 11 11
13 13 12 13 17 18 17 17 16 14 13 12 12 10 9 10 10 11 12 12 12 12 12 12 12 13 13 12 12 13 13 11 10 10 10 10 10 10 11 11 12 13 14 15 16 17 18 17 17 17 18 17 16 14 13 13 13 12 12 13 15 17 19 21 22 22 22 22 21 21 25 27 27 27 25 25 24 22 21 19 19 21 24 25 22 19 19 17 15 13 11 11 10 10 10 9 8
12 12 12 13 16 17 17 18 18 15 12 12 11 10 9 10 10 10 11 12 12 11 12 12 12 12 12 11 11 13 13 11 10 10 10 10 10 10 10 10 10 11 12 13 14 15 16 16 16 17 17 18 18 17 15 14 13 13 12 12 13 14 16 18 21 21 20 22 22 23 26 28 29 27 25 24 22 21 20 17 17 18 20 22 22 18 15 14 13 11 9 9 9 8 8 8 8
13 11 11 13 17 17 16 16 17 14 12 11 12 12 11 11 11 11 10 11 12 11 11 11 12 11 10 10 11 13 12 10 10 10 10 10 10 9 9 10 10 10 10 12 13 13 14 15 15 15 16 17 18 18 18 17 15 14 13 12 12 13 14 15 17 19 18 21 22 23 27 29 31 29 26 24 22 20 17 15 15 14 15 16 18 16 12 11 10 9 8 8 8 8 8 8 8
15 12 11 14 17 17 15 15 14 14 13 13 14 14 13 12 11 11 10 11 11 10 11 12 11 11 10 10 11 12 11 11 10 10 10 10 10 10 10 9 9 9 10 10 11 12 13 14 14 14 14 15 16 17 18 18 18 17 15 14 13 13 13 13 14 15 16 18 21 24 27 30 31 30 27 24 20 17 15 15 15 13 12 12 13 12 10 9 9 9 9 8 9 9 9 9 9
14 13 13 15 16 17 15 14 14 16 15 15 16 15 15 13 12 12 11 10 10 10 11 11 11 10 10 10 12 12 11 12 10 10 10 9 9 10 9 9 10 10 10 10 10 11 11 12 13 14 14 14 14 14 16 17 18 19 18 17 16 15 14 14 14 14 14 16 19 23 27 28 29 28 25 23 19 16 17 17 15 13 12 11 11 10 9 9 9 9 9 9 9 9 10 11 11
13 12 13 15 16 15 15 16 16 17 16 15 15 15 15 14 13 13 12 12 11 11 12 12 11 11 11 11 12 13 12 11 10 10 10 9 9 9 10 10 10 10 10 10 10 10 10 11 12 13 13 14 14 13 14 15 16 17 19 19 19 18 17 16 15 15 15 17 19 20 23 24 23 22 21 20 17 16 16 16 15 13 11 10 10 10 10 10 10 10 9 10 10 11 12 12 12
12 12 13 14 15 16 17 18 18 17 17 16 16 16 16 15 14 14 13 13 13 12 13 12 12 12 11 11 12 12 12 11 10 9 9 9 9 9 10 9 10 10 10 10 10 10 10 10 10 11 12 13 13 13 13 13 14 15 16 18 19 20 19 19 19 17 17 20 20 18 20 20 19 18 17 17 16 15 15 15 14 11 11 11 11 11 12 11 11 11 11 11 11 12 13 13 13
12 13 15 16 17 18 19 19 19 18 18 18 17 16 15 14 14 14 14 14 14 14 13 13 13 13 12 11 10 10 10 10 9 9 9 9 9 9 9 10 10 10 10 10 10 10 10 10 10 10 11 11 12 13 13 13 13 14 14 15 16 18 18 19 20 19 21 24 23 21 21 20 19 17 17 16 15 15 15 14 12 10 11 11 11 12 12 12 12 12 12 12 13 14 14 14 13
13 15 17 18 18 19 20 20 20 19 18 17 17 17 16 14 14 14 14 14 14 14 14 14 14 13 13 12 11 11 10 10 9 9 9 9 9 9 9 10 10 10 10 10 10 10 10 10 10 10 10 10 10 11 12 13 13 13 13 14 14 15 16 18 19 19 20 24 26 26 25 23 21 19 18 17 15 14 15 14 11 11 11 11 12 12 12 12 12 12 12 13 14 15 14 14 14
15 16 17 18 18 19 19 19 19 19 17 16 16 16 16 14 13 14 14 14 14 14 14 14 14 14 14 13 11 11 11 10 10 10 10 9 9 9 9 9 9 10 10 10 10 10 10 10 10 10 10 10 10 10 11 12 12 13 13 13 13 14 15 16 17 18 18 20 23 24 24 24 23 22 21 19 17 15 15 14 12 12 12 12 12 12 12 12 12 12 13 14 15 15 15 15 14
16 17 18 18 17 18 18 18 19 19 17 16 16 16 16 15 14 14 14 14 14 14 14 14 14 14 14 14 13 12 11 10 10 10 10 10 10 10 9 9 9 9 9 9 10 10 11 10 10 10 10 10 10 10 10 11 11 12 13 12 12 13 13 14 15 16 16 17 18 19 19 20 20 20 20 19 17 16 16 15 13 13 13 13 13 13 13 13 13 13 13 14 15 15 15 15 15
16 17 19 17 16 17 18 19 21 21 19 17 16 16 16 16 16 15 15 15 15 15 15 14 14 14 15 15 15 14 12 11 11 11 11 11 11 10 10 10 10 9 9 9 10 10 10 10 11 11 10 10 10 10 10 11 11 11 12 12 12 12 12 13 13 14 15 15 16 16 17 17 17 17 17 16 15 14 14 14 12 12 12 13 13 13 13 14 14 14 14 15 15 15 15 15 15
16 17 18 17 15 16 18 19 21 20 19 18 17 17 17 16 16 15 15 16 16 15 14 14 14 14 15 15 14 14 13 13 13 13 13 13 13 12 12 12 12 11 11 11 10 10 10 10 10 10 10 11 11 11 11 11 11 11 11 12 12 12 12 12 13 13 14 14 14 15 15 16 16 16 16 14 13 13 13 13 11 10 11 11 11 11 12 12 13 13 14 15 16 16 16 15 15
18 17 17 16 17 18 18 19 20 20 18 19 19 18 18 17 17 16 15 16 17 16 15 15 14 14 15 15 15 14 14 14 15 15 16 16 15 15 15 15 15 15 14 13 11 9 9 9 10 10 10 10 11 11 11 11 12 12 11 11 12 12 12 12 12 13 13 13 13 13 14 15 16 17 16 15 14 13 13 13 11 11 11 11 11 11 11 11 11 12 13 14 15 16 16 16 16
20 19 18 18 19 20 20 20 20 20 20 20 20 20 20 20 19 18 16 16 16 17 17 17 16 15 15 15 15 15 15 15 15 16 17 17 16 16 16 16 17 17 16 16 14 12 11 10 10 10 10 10 11 11 12 12 12 12 12 12 13 13 13 12 12 13 13 14 14 13 13 14 16 16 15 15 15 14 14 13 12 11 12 12 12 12 11 11 11 11 12 13 14 15 16 16 17
22 22 21 21 21 21 21 21 21 21 21 22 22 22 22 22 21 20 18 17 16 16 17 17 17 16 15 15 15 15 16 16 16 16 16 17 17 16 16 16 16 17 17 17 16 15 14 12 11 11 11 11 11 11 12 12 13 13 13 14 14 14 14 14 13 13 14 15 16 15 14 15 16 16 15 14 15 14 14 14 13 12 12 12 12 12 12 11 11 11 12 13 13 14 14 15 16
23 23 23 23 22 22 22 22 22 23 23 23 23 23 23 23 22 20 20 19 17 17 17 17 17 17 17 16 15 15 15 16 16 16 16 17 17 16 16 16 16 16 17 17 16 16 16 14 13 12 12 12 12 13 12 13 13 13 14 15 15 16 16 16 16 16 16 16 17 17 17 17 17 16 15 14 15 14 13 13 13 12 12 13 13 13 12 12 12 11 12 12 13 14 14 14 15
24 24 23 23 23 24 23 23 23 23 23 24 24 25 24 24 23 21 21 20 18 18 18 18 18 18 19 18 17 16 16 16 16 16 16 16 17 17 17 16 16 16 16 16 17 17 16 16 15 14 13 12 13 14 14 14 14 14 15 15 16 17 17 17 18 18 19 18 19 19 18 17 17 17 16 15 15 14 13 13 13 12 12 12 13 13 13 13 12 12 12 12 13 14 14 15 15
25 24 24 24 24 24 24 24 24 24 24 25 25 26 25 24 24 22 22 21 20 19 18 18 18 18 19 20 19 19 18 18 18 18 17 17 17 17 17 17 17 16 16 17 17 17 17 17 17 16 15 14 13 14 14 15 16 16 15 15 15 16 17 18 19 19 20 20 20 20 19 18 18 18 17 16 15 14 14 13 13 12 12 12 13 13 13 13 13 12 12 12 13 14 14 15 15
25 25 25 25 25 25 25 25 25 25 25 25 26 27 25 24 24 23 22 22 21 20 19 18 17 17 18 19 20 20 20 21 20 19 18 18 17 16 17 17 17 17 17 17 18 18 19 19 18 18 18 17 16 15 15 15 16 16 17 17 16 15 16 18 19 19 20 21 21 21 21 20 19 19 18 17 16 15 15 14 13 13 12 12 12 13 13 14 13 12 13 13 13 13 14 15 15
26 26 26 26 26 26 26 25 25 25 26 25 26 27 25 23 23 23 22 22 22 21 20 19 18 18 18 18 19 21 22 21 20 19 18 17 17 16 16 17 17 17 17 17 18 19 19 19 19 19 20 19 18 18 17 16 17 17 18 18 18 18 17 17 18 19 20 21 22 22 21 21 20 20 18 17 17 16 16 16 14 14 13 12 12 13 13 14 13 12 13 13 13 13 14 15 15
27 27 28 28 28 27 26 25 26 26 26 26 27 28 27 24 23 23 22 22 22 21 21 21 21 20 20 20 20 20 21 21 20 20 19 18 17 17 16 17 17 18 18 18 19 19 19 19 20 21 22 21 20 20 20 20 20 21 21 21 22 22 21 19 18 19 20 22 23 23 23 22 22 21 20 19 18 17 17 16 16 15 14 13 13 12 13 13 13 12 12 13 13 13 14 14 15
28 29 29 30 30 29 27 26 27 27 27 26 27 28 27 24 23 23 23 23 22 22 21 22 23 23 22 21 21 20 21 22 22 21 20 20 19 19 18 18 19 19 19 19 19 20 21 21 22 23 23 22 22 22 23 24 25 26 27 27 27 27 26 24 22 21 22 22 23 24 24 23 23 23 22 21 20 19 17 16 16 16 15 14 13 13 13 13 13 13 13 13 13 13 13 14 15
30 31 31 31 31 30 29 28 27 27 27 25 26 28 27 25 24 23 24 24 23 22 22 23 24 24 23 23 22 22 22 23 22 21 21 20 21 21 21 20 20 21 21 21 21 22 23 23 24 24 22 22 22 24 26 28 30 31 33 34 34 34 33 32 30 27 25 25 25 26 26 25 25 25 24 23 23 21 19 17 17 17 16 15 14 13 13 13 13 13 13 13 13 13 13 14 14
33 33 34 34 33 32 32 30 28 27 27 26 27 28 28 27 26 26 26 27 26 25 24 25 26 25 24 24 23 24 24 23 23 23 24 23 23 22 23 22 22 21 21 22 22 23 24 26 27 26 24 22 23 25 27 29 32 34 35 38 38 37 37 38 37 34 31 30 29 28 29 29 28 28 27 26 26 25 21 19 18 17 17 16 15 14 13 13 13 13 13 13 13 13 13 14 14
36 35 36 35 34 34 34 33 29 29 30 29 29 29 29 29 28 28 28 29 29 27 27 27 27 26 25 25 25 25 25 25 25 25 26 26 25 24 24 25 24 23 23 23 23 23 25 26 28 28 26 25 25 27 29 31 34 36 38 39 40 39 38 38 39 39 37 35 34 33 33 33 32 32 31 29 29 28 25 23 20 19 18 18 17 15 14 13 13 13 13 13 13 13 13 14 14
38 38 37 37 36 36 35 34 32 33 33 33 32 32 31 31 30 30 30 30 30 29 28 28 27 27 26 26 26 26 26 27 27 26 26 26 25 24 25 26 26 25 24 24 24 24 24 25 27 27 26 26 26 27 30 31 33 36 38 39 40 41 39 38 38 39 39 38 37 36 36 35 35 35 34 33 31 30 29 27 24 23 21 20 19 18 15 14 13 13 13 14 14 14 14 14 15
38 38 38 38 38 38 36 35 35 35 35 35 35 35 33 33 33 33 33 32 31 30 29 28 28 27 27 27 28 28 27 28 28 27 26 26 26 26 26 26 26 25 25 24 24 24 24 24 25 26 26 25 25 27 29 30 31 32 34 35 36 38 39 39 39 39 39 39 38 38 37 37 37 37 37 36 35 33 32 31 29 27 25 23 21 20 18 16 15 14 14 14 14 14 15 15 16
38 39 40 40 41 41 39 38 38 37 38 37 36 36 35 34 34 34 34 33 32 30 29 28 28 29 29 30 30 30 29 30 30 29 28 27 26 27 27 27 26 25 25 25 25 25 25 25 26 26 27 27 27 29 30 29 31 33 35 36 37 38 39 39 39 39 39 39 39 38 37 36 35 34 35 36 37 36 34 33 32 30 28 27 25 23 22 20 18 15 14 15 15 14 15 15 16
42 42 43 44 45 44 41 41 41 39 40 39 38 37 37 36 36 35 33 32 32 30 29 29 30 32 32 32 32 31 31 31 30 30 29 28 27 27 28 27 26 26 25 26 26 26 27 27 27 28 29 30 31 34 36 35 35 36 37 40 40 40 41 41 41 39 39 39 40 39 36 34 31 30 30 33 36 37 36 35 34 33 31 30 29 27 25 24 21 17 16 15 15 15 15 15 15
47 48 48 49 47 45 44 43 42 40 40 40 39 39 38 37 36 34 32 32 32 31 30 31 33 34 34 33 33 33 32 31 30 31 31 30 29 29 28 28 28 27 27 27 27 27 28 28 28 29 29 29 30 33 38 40 40 38 38 39 39 38 39 39 38 37 36 37 39 39 38 36 34 33 33 34 35 36 37 37 36 36 34 33 32 30 28 27 24 21 19 17 17 17 16 15 15
50 51 51 51 48 49 49 45 42 41 41 41 41 39 38 37 34 32 30 30 32 31 30 32 34 35 35 34 34 34 34 33 32 32 32 31 31 30 30 30 30 29 28 28 27 28 28 29 29 29 29 28 28 29 32 35 36 36 36 36 36 36 36 35 34 33 33 34 35 35 36 35 35 35 35 35 35 36 37 38 38 38 37 37 36 34 32 30 28 25 22 20 19 19 18 18 17
51 51 52 50 49 49 49 46 43 42 43 43 42 42 39 35 34 33 31 32 34 31 31 34 35 34 35 34 34 34 35 34 33 33 33 32 33 33 33 32 32 31 30 29 28 29 29 29 29 29 29 29 28 29 29 30 30 31 32 33 34 35 35 34 34 33 31 31 31 31 31 32 32 32 32 33 33 35 36 38 40 40 41 40 40 39 37 35 34 32 28 25 21 20 20 19 19
51 51 51 49 47 48 48 47 46 46 48 44 43 49 46 37 35 35 33 35 37 33 33 37 36 36 36 35 35 35 36 36 37 36 35 34 34 34 34 34 33 33 33 33 32 32 31 31 31 31 30 30 30 30 29 29 29 30 31 33 35 36 37 38 38 36 34 32 31 30 30 30 30 30 30 30 31 32 34 36 39 41 42 42 42 41 40 40 39 38 35 31 26 23 21 20 20
51 51 51 48 47 49 48 48 49 51 52 47 46 53 51 40 37 36 33 35 36 35 35 37 37 38 38 37 37 39 40 40 40 40 39 38 37 37 37 36 36 36 36 36 36 35 35 34 34 33 33 32 32 32 32 31 31 31 31 32 33 34 35 37 37 35 33 33 33 32 32 31 31 31 31 30 30 30 31 33 35 39 42 43 43 43 43 43 43 42 41 38 33 28 23 22 21
53 52 52 50 48 49 49 50 52 53 51 48 46 49 49 44 38 35 33 35 37 35 35 36 36 38 38 38 41 43 45 44 43 43 43 42 41 40 40 39 38 38 39 38 38 37 37 37 37 36 36 35 35 35 35 34 34 33 33 33 32 33 32 33 33 33 32 32 32 32 32 32 32 32 32 31 31 30 29 30 31 34 37 41 44 45 45 45 45 45 45 43 39 33 28 24 23
54 53 52 50 49 50 50 52 54 52 52 50 45 45 50 47 37 33 34 36 38 36 35 36 35 36 36 37 42 46 47 47 47 47 46 45 44 43 43 43 41 39 39 40 40 40 40 40 40 39 39 39 39 38 37 37 37 36 36 35 35 34 34 33 32 32 32 32 32 33 33 33 33 32 33 33 32 32 31 31 31 31 32 35 39 42 45 46 47 47 47 45 42 38 33 29 27
53 53 51 50 51 52 52 54 53 52 54 50 44 45 50 48 36 33 36 36 38 36 35 37 36 36 37 37 40 45 49 49 48 48 47 47 46 45 45 47 47 44 41 40 40 41 42 42 42 41 41 41 42 41 40 39 38 38 37 37 36 36 36 35 34 33 32 32 33 33 34 35 35 34 33 33 33 33 33 33 32 32 31 32 34 37 40 43 46 48 48 47 45 41 38 33 30
52 51 52 52 53 53 53 53 50 54 56 47 42 42 46 51 42 34 36 36 36 36 36 38 38 37 39 41 41 44 49 49 46 46 48 49 49 49 49 49 50 49 46 42 40 41 42 42 41 40 40 41 43 44 43 41 40 39 38 38 38 38 38 38 37 37 36 35 35 35 35 37 38 38 37 35 34 33 33 33 32 33 33 32 33 34 35 38 41 44 47 48 46 42 40 37 33
50 50 51 52 53 50 52 53 51 58 56 44 42 42 45 52 45 34 35 36 34 35 36 37 40 39 40 43 45 46 51 50 44 43 45 47 48 49 50 49 49 50 48 44 42 43 43 42 40 40 40 40 41 43 43 42 42 41 40 40 40 40 40 40 40 39 39 38 38 37 37 38 39 41 41 40 38 36 35 34 33 33 33 33 33 34 34 35 37 40 43 46 46 44 41 39 36
48 49 49 53 53 51 55 58 57 59 54 45 45 47 47 48 41 33 34 36 34 33 33 35 38 40 39 42 44 47 50 48 43 41 41 42 44 45 45 46 47 48 47 44 42 43 44 42 40 40 40 41 41 42 42 42 42 42 41 41 41 42 42 42 42 42 42 42 41 40 40 40 40 41 42 43 44 43 40 37 36 36 35 35 34 34 34 35 36 38 40 42 44 45 43 41 38
47 48 49 53 53 55 59 57 56 56 52 48 47 47 47 42 35 32 34 37 36 34 34 36 38 39 39 40 42 44 45 44 41 39 39 40 42 43 44 43 43 42 43 42 41 41 42 41 41 41 42 43 43 43 42 42 41 41 42 42 42 42 43 43 43 43 43 43 44 44 43 43 43 43 43 43 44 45 44 42 41 40 39 38 37 37 36 36 37 37 39 40 41 43 44 43 41
47 46 48 51 49 55 60 55 56 58 53 50 46 45 44 38 34 34 35 37 37 36 37 37 37 38 38 38 38 41 43 42 39 37 36 37 39 39 40 39 39 39 40 42 42 43 43 42 42 42 43 43 42 42 42 42 42 42 42 41 41 41 42 43 43 43 42 42 43 44 44 45 45 45 45 45 45 45 45 44 44 43 42 41 40 40 39 38 37 38 39 40 41 42 43 43 43
52 48 51 54 49 53 60 59 56 57 59 53 44 42 38 30 30 32 32 34 34 36 37 36 38 39 39 39 39 41 43 42 40 39 38 38 39 39 40 42 44 45 46 46 46 46 44 42 42 42 43 42 41 40 40 41 43 44 43 42 41 40 40 41 41 42 42 42 42 43 44 45 46 46 46 46 46 46 45 45 45 44 44 43 43 43 42 41 40 39 39 40 41 42 43 43 43
58 54 54 53 50 51 58 62 54 53 64 55 39 38 34 28 31 31 29 32 33 35 38 39 42 43 43 43 43 44 45 43 42 42 42 42 43 44 45 47 47 47 48 47 47 47 46 45 45 45 44 43 42 43 43 43 44 44 44 43 41 40 38 38 39 40 40 40 40 40 41 43 45 46 46 47 47 47 47 46 45 45 44 44 44 44 44 44 43 42 41 40 40 42 43 43 43
59 58 54 50 51 52 53 60 59 59 66 54 37 37 35 31 35 32 32 36 37 40 44 45 46 47 47 47 46 47 46 45 44 44 45 45 47 48 47 46 46 46 47 48 49 49 49 48 47 46 46 46 48 52 52 50 49 48 46 44 41 39 37 36 36 37 37 37 36 36 36 37 39 42 44 45 47 48 48 48 47 46 45 45 45 45 46 46 46 46 45 43 41 41 42 43 44
56 56 51 46 50 53 49 57 65 66 66 56 43 40 36 32 32 32 35 39 41 45 47 48 48 48 49 49 49 49 47 47 47 47 48 49 48 48 47 46 48 50 51 51 53 54 53 52 50 48 47 46 48 51 53 53 51 49 46 42 39 37 35 34 34 35 35 35 34 33 33 33 34 37 39 42 45 47 49 50 50 50 48 47 45 45 46 47 48 48 48 47 46 44 43 42 43
51 49 46 41 44 48 47 52 57 59 64 62 56 52 43 32 29 31 35 39 44 48 47 48 50 50 52 53 52 50 49 49 49 49 49 50 52 53 54 54 53 53 54 54 55 57 57 58 55 51 49 45 44 44 45 48 49 48 46 44 42 41 39 37 36 35 33 33 33 33 34 34 35 36 38 39 41 43 46 49 52 54 55 54 53 50 48 48 48 49 49 49 49 49 48 46 45
46 45 44 43 46 51 54 54 48 50 62 65 65 64 49 36 35 36 37 41 45 46 47 49 51 52 55 57 56 53 51 52 52 52 53 55 58 60 60 60 58 55 53 52 52 54 54 56 55 51 47 45 43 41 41 42 43 44 44 44 43 40 38 35 32 30 28 29 31 32 32 32 33 34 36 37 37 39 40 43 47 51 53 55 57 57 56 54 53 53 53 53 53 52 52 51 51
41 48 51 49 51 57 64 63 49 47 58 63 68 72 57 43 43 43 44 47 46 45 48 53 55 56 56 56 55 53 52 53 55 58 61 62 62 60 58 56 55 52 49 46 45 44 43 43 43 41 41 41 42 41 40 39 40 40 40 39 36 32 29 27 25 24 24 24 25 27 27 28 29 30 32 33 34 35 36 37 40 43 44 45 47 50 53 55 58 61 62 62 61 60 59 58 57